Simultaneous Nadir Overpasses (SNOs) Predictions

Prediction of SNOs between GOES-15 and LANDSAT-8 Satellite Orbit:

Table of predicted SNOs for the next 14.0 days since TLE Epoch: 2/12/2022
Index Date Time (GOES-15) GOES-15 Lat,Lon LANDSAT-8 Lat,Lon Distance(km) Time Diff (sec)
1 02/13/2022 06:30:20 -0.00,-128.04 0.80,-124.25 430.55 80
2 02/13/2022 18:48:54 0.00,-128.06 0.32,-129.40 153.96 80
3 02/15/2022 18:39:23 0.00,-128.00 -0.33,-126.45 176.12 80
4 02/16/2022 07:00:46 0.00,-127.95 -0.78,-131.64 419.25 80
5 02/18/2022 06:48:33 -0.00,-127.89 -0.18,-128.67 89.51 80
6 02/20/2022 06:33:40 -0.00,-127.83 0.42,-125.71 239.97 80
7 02/20/2022 18:54:56 0.00,-127.84 0.63,-130.88 344.99 80
8 02/22/2022 18:42:43 0.00,-127.77 0.02,-127.91 16.48 80
9 02/24/2022 18:33:10 0.00,-127.68 -0.60,-124.95 311.35 80
10 02/25/2022 06:54:33 -0.00,-127.63 -0.55,-130.13 284.44 80
